User: anonymous   Login
Location: Unspecified
(0.0000°N, 0.0000°E)
Time: 11:08:57
(UTC+00:00)
Language:

NANOSAT C BR1 - Orbit

View from above orbital plane
View from above orbital plane
View from above satellite
View from above satellite

Ground track
Ground track

The orbit data is extracted from the following two-line orbital elements,

1 40024U 14033Q   19348.75422628  .00000275  00000-0  34501-4 0  9993
2 40024  97.9196 270.9344 0012060 177.4504 182.6777 14.89954331298104
Epoch (UTC): 14 December 2019 18:06:05
Eccentricity: 0.0012060
inclination: 97.9196°
perigee height: 589 km
apogee height: 606 km
right ascension of ascending node: 270.9344°
argument of perigee: 177.4504°
revolutions per day: 14.89954331
mean anomaly at epoch: 182.6777°
orbit number at epoch: 29810

The dashed part of the orbit path shows where the satellite is in the earth's shadow,  

DLR